Погода в Ивакуни

Япония     34°09′45″N   132°13′10″E
темп.,
°C
ветер,
м/с
пор.,
м/с
влажн.,
%
обл.,
%
осадки,
мм/ч
давл.,
гПа
погр.,
м
14 апреля, ср
ср1400:00+12зсз2291100 0.1 101240
03:00+11з2389100 0.1 101166
06:00+10зсз3387100 0.0 101184
09:00+12зсз2475100 0.0 1013671
12:00+15сз4753100 0.0 10131071
15:00+12с7106988 0.1 10141319
18:00+11ссв586935 0.1 10161200
21:00+8ссв35720 0.1 1019409
15 апреля, чт
чт1500:00+6с22770 0.0 1020138
03:00+5с226021 0.0 1020102
06:00+5с3353100 0.0 102199
09:00+10св354899 0.0 1021604
12:00+13вюв2341100 0.0 1020640
15:00+13ю2147100 0.0 1019430
18:00+11ююв2259100 0.0 1021107
21:00+9с015972 0.0 102199
16 апреля, пт
пт1600:00+8сз22620 0.0 102150
03:00+8ссз117270 0.0 102152
06:00+8ссз11770 0.0 102050
09:00+13ююв13645 0.0 1021413
12:00+15ю24558 0.0 1019605
15:00+15ю1365100 0.0 1018308
18:00+13сз0181100 0.1 101925
21:00+12всв1184100 0.3 102043
17 апреля, сб
сб1700:00+13сз0086100 0.0 101931
03:00+12ссз0091100 0.2 101735
06:00+12юз1196100 1.4 101646
09:00+12юз1197100 2.9 101698
12:00+16юз368289 0.8 1015674
15:00+19зюз510484 1.1 10121298
18:00+15з612540 0.0 1012638
21:00+12з614690 0.0 1014979
18 апреля, вс
вс1800:00+11зсз613530 0.0 1013784
03:00+9з814530 0.0 10131011
06:00+9з512600 0.0 1014979
09:00+12з6105444 0.0 10151683
12:00+14зсз711476 0.0 10141656
15:00+15зсз69454 0.0 10141401
18:00+12зсз47570 0.0 1014620
21:00+8зсз33700 0.0 101672